Weather History for K4O4 - February, 2013

Change the Weather History Date:

Friday, February 1, 2013

  Actual Average (KDEQ) Record (KDEQ)
Temperature  
Mean Temperature 40 °F 42 °F  
Max Temperature 51 °F 55 °F 78 °F (1962)
Min Temperature 28 °F 29 °F 6 °F (1951)
Degree Days  
Heating Degree Days 26 23  
Month to date heating degree days 23  
Since 1 July heating degree days 1959  
Cooling Degree Days 0 0  
Month to date cooling degree days 0  
Year to date cooling degree days 1  
Moisture  
Dew Point 20 °F    
Average Humidity 49    
Maximum Humidity 74    
Minimum Humidity 24    
Precipitation  
Precipitation 0.00 in 0.15 in 1.55 in (1990)
Month to date precipitation 0.15  
Year to date precipitation 3.47  
Snow  
Snow 0.00 in - - ()
Month to date snowfall  
Since 1 July snowfall  
Snow Depth -    
Sea Level Pressure  
Sea Level Pressure 30.35 in    
Wind  
Wind Speed 7 mph (East)    
Max Wind Speed 15 mph    
Max Gust Speed 20 mph    
Visibility 10 miles    
Events      
T = Trace of Precipitation, MM = Missing Value Source: NWS Daily Summary

Daily Weather History Graph

Daily Weather History Graph

Search for Another Location

Airport or City:

Trip Planner

Search our weather history database for the weather conditions in past years. The results will help you decide how hot, cold, wet, or windy it might be!

Date:

Astronomy

Feb. 01, 2013 Rise Set
Actual Time 7:16 AM CST 5:50 PM CST
Civil Twilight 6:49 AM CST 6:16 PM CST
Nautical Twilight 6:20 AM CST 6:46 PM CST
Astronomical Twilight 5:50 AM CST 7:15 PM CST
Moon 11:38 PM CST (2/1) 10:08 AM CST (2/1)
Length of Visible Light 11h 26m
Length of Day
10h 34m
Waning Gibbous, 70% of the Moon is Illuminated
Feb 1
Waning Gibbous
Feb 3
Last Quarter
Feb 10
New
Feb 17
First Quarter
Feb 25
Full

Hourly Weather History & Observations

Time (CST) Temp. Windchill Dew Point Humidity Pressure Visibility Wind Dir Wind Speed Gust Speed Precip Events Conditions
12:15 AM 35.6 °F 32.8 °F 21.2 °F 56% 30.34 in 10.0 mi North 3.5 mph - N/A   Clear
12:35 AM 35.6 °F 28.6 °F 21.2 °F 56% 30.33 in 10.0 mi North 9.2 mph - N/A   Clear
12:55 AM 35.6 °F 30.7 °F 21.2 °F 56% 30.34 in 10.0 mi North 5.8 mph - N/A   Clear
1:15 AM 33.8 °F 28.6 °F 21.2 °F 60% 30.35 in 10.0 mi North 5.8 mph - N/A   Clear
1:35 AM 32.0 °F - 19.4 °F 60% 30.35 in 10.0 mi Calm Calm - N/A   Clear
1:55 AM 32.0 °F - 19.4 °F 60% 30.35 in 10.0 mi Calm Calm - N/A   Clear
2:15 AM 32.0 °F - 19.4 °F 60% 30.36 in 10.0 mi Calm Calm - N/A   Clear
2:35 AM 32.0 °F - 21.2 °F 64% 30.36 in 10.0 mi Calm Calm - N/A   Clear
2:55 AM 30.2 °F 26.7 °F 21.2 °F 69% 30.37 in 10.0 mi North 3.5 mph - N/A   Clear
3:15 AM 32.0 °F 27.5 °F 19.4 °F 60% 30.37 in 10.0 mi North 4.6 mph - N/A   Clear
3:35 AM 32.0 °F 28.7 °F 19.4 °F 60% 30.38 in 10.0 mi North 3.5 mph - N/A   Clear
3:55 AM 30.2 °F - 19.4 °F 64% 30.40 in 10.0 mi Calm Calm - N/A   Clear
4:15 AM 30.2 °F 26.7 °F 19.4 °F 64% 30.40 in 10.0 mi North 3.5 mph - N/A   Clear
4:35 AM 30.2 °F - 19.4 °F 64% 30.40 in 10.0 mi Calm Calm - N/A   Clear
4:55 AM 30.2 °F 24.3 °F 19.4 °F 64% 30.39 in 10.0 mi North 5.8 mph - N/A   Clear
5:15 AM 28.4 °F 23.3 °F 19.4 °F 69% 30.40 in 10.0 mi North 4.6 mph - N/A   Clear
5:35 AM 28.4 °F 22.2 °F 19.4 °F 69% 30.40 in 10.0 mi North 5.8 mph - N/A   Clear
5:55 AM 28.4 °F 22.2 °F 19.4 °F 69% 30.41 in 10.0 mi NNE 5.8 mph - N/A   Clear
6:15 AM 28.4 °F 23.3 °F 19.4 °F 69% 30.41 in 10.0 mi NNE 4.6 mph - N/A   Clear
6:35 AM 28.4 °F 24.6 °F 19.4 °F 69% 30.42 in 10.0 mi NE 3.5 mph - N/A   Clear
6:55 AM 28.4 °F 24.6 °F 19.4 °F 69% 30.43 in 10.0 mi NE 3.5 mph - N/A   Clear
7:15 AM 28.4 °F 21.2 °F 19.4 °F 69% 30.43 in 10.0 mi ENE 6.9 mph - N/A   Clear
7:35 AM 28.4 °F 22.2 °F 21.2 °F 74% 30.43 in 10.0 mi East 5.8 mph - N/A   Clear
7:55 AM 30.2 °F 23.4 °F 21.2 °F 69% 30.44 in 10.0 mi East 6.9 mph - N/A   Clear
8:15 AM 32.0 °F 24.8 °F 21.2 °F 64% 30.44 in 10.0 mi East 8.1 mph - N/A   Clear
8:35 AM 32.0 °F 23.0 °F 21.2 °F 64% 30.44 in 10.0 mi East 11.5 mph - N/A   Clear
8:55 AM 33.8 °F 24.3 °F 21.2 °F 60% 30.45 in 10.0 mi East 13.8 mph 17.3 mph N/A   Clear
9:15 AM 33.8 °F 24.3 °F 19.4 °F 56% 30.44 in 10.0 mi East 13.8 mph - N/A   Clear
9:35 AM 35.6 °F 26.2 °F 19.4 °F 52% 30.44 in 10.0 mi East 15.0 mph - N/A   Clear
9:55 AM 37.4 °F 28.9 °F 17.6 °F 45% 30.44 in 10.0 mi ESE 13.8 mph 18.4 mph N/A   Clear
10:15 AM 37.4 °F 29.3 °F 17.6 °F 45% 30.44 in 10.0 mi East 12.7 mph 16.1 mph N/A   Clear
10:35 AM 39.2 °F 31.6 °F 17.6 °F 42% 30.44 in 10.0 mi East 12.7 mph - N/A   Clear
10:55 AM 41.0 °F 33.9 °F 17.6 °F 39% 30.44 in 10.0 mi East 12.7 mph - N/A   Clear
11:15 AM 41.0 °F 34.7 °F 17.6 °F 39% 30.44 in 10.0 mi East 10.4 mph - N/A   Clear
11:35 AM 42.8 °F 38.0 °F 17.6 °F 36% 30.42 in 10.0 mi East 8.1 mph - N/A   Clear
11:55 AM 44.6 °F 38.8 °F 19.4 °F 37% 30.41 in 10.0 mi East 11.5 mph - N/A   Clear
12:15 PM 44.6 °F 38.8 °F 17.6 °F 34% 30.39 in 10.0 mi East 11.5 mph 16.1 mph N/A   Clear
12:35 PM 46.4 °F 41.5 °F 19.4 °F 34% 30.38 in 10.0 mi East 10.4 mph - N/A   Clear
12:55 PM 48.2 °F - 19.4 °F 32% 30.37 in 10.0 mi ESE 6.9 mph 17.3 mph N/A   Clear
1:15 PM 48.2 °F - 19.4 °F 32% 30.36 in 10.0 mi East 13.8 mph - N/A   Clear
1:35 PM 50.0 °F - 19.4 °F 30% 30.34 in 10.0 mi East 13.8 mph - N/A   Clear
1:55 PM 50.0 °F - 17.6 °F 28% 30.33 in 10.0 mi ESE 10.4 mph 18.4 mph N/A   Clear
2:15 PM 51.8 °F - 17.6 °F 26% 30.32 in 10.0 mi East 10.4 mph 18.4 mph N/A   Clear
2:35 PM 51.8 °F - 17.6 °F 26% 30.32 in 10.0 mi ESE 12.7 mph - N/A   Clear
2:55 PM 51.8 °F - 17.6 °F 26% 30.31 in 10.0 mi ESE 9.2 mph - N/A   Clear
3:15 PM 51.8 °F - 17.6 °F 26% 30.30 in 10.0 mi ESE 12.7 mph 19.6 mph N/A   Clear
3:35 PM 51.8 °F - 15.8 °F 24% 30.30 in 10.0 mi ESE 15.0 mph - N/A   Clear
3:55 PM 51.8 °F - 17.6 °F 26% 30.29 in 10.0 mi SE 12.7 mph 16.1 mph N/A   Clear
4:15 PM 51.8 °F - 17.6 °F 26% 30.29 in 10.0 mi ESE 11.5 mph - N/A   Clear
4:35 PM 51.8 °F - 17.6 °F 26% 30.28 in 10.0 mi ESE 10.4 mph - N/A   Clear
4:55 PM 50.0 °F - 19.4 °F 30% 30.27 in 10.0 mi ESE 13.8 mph 17.3 mph N/A   Clear
5:15 PM 50.0 °F - 19.4 °F 30% 30.26 in 10.0 mi ESE 10.4 mph - N/A   Clear
5:35 PM 48.2 °F - 19.4 °F 32% 30.25 in 10.0 mi SE 10.4 mph - N/A   Clear
5:55 PM 46.4 °F 42.4 °F 19.4 °F 34% 30.26 in 10.0 mi ESE 8.1 mph - N/A   Clear
6:15 PM 42.8 °F 38.6 °F 19.4 °F 39% 30.26 in 10.0 mi East 6.9 mph - N/A   Clear
6:35 PM 41.0 °F 36.4 °F 21.2 °F 45% 30.25 in 10.0 mi East 6.9 mph - N/A   Clear
6:55 PM 41.0 °F 35.8 °F 21.2 °F 45% 30.25 in 10.0 mi East 8.1 mph - N/A   Clear
7:15 PM 39.2 °F 33.6 °F 21.2 °F 49% 30.25 in 10.0 mi East 8.1 mph - N/A   Clear
7:55 PM 39.2 °F 33.6 °F 19.4 °F 45% 30.25 in 10.0 mi East 8.1 mph - N/A   Clear
8:15 PM 37.4 °F 31.4 °F 19.4 °F 48% 30.25 in 10.0 mi East 8.1 mph - N/A   Clear
8:35 PM 37.4 °F 30.3 °F 19.4 °F 48% 30.25 in 10.0 mi East 10.4 mph - N/A   Clear
8:55 PM 37.4 °F 31.4 °F 19.4 °F 48% 30.25 in 10.0 mi East 8.1 mph - N/A   Clear
9:15 PM 37.4 °F 30.8 °F 21.2 °F 52% 30.26 in 10.0 mi East 9.2 mph - N/A   Clear
9:35 PM 37.4 °F 30.8 °F 21.2 °F 52% 30.26 in 10.0 mi East 9.2 mph - N/A   Clear
9:55 PM 37.4 °F 30.8 °F 21.2 °F 52% 30.26 in 10.0 mi East 9.2 mph - N/A   Clear
10:15 PM 37.4 °F 30.3 °F 21.2 °F 52% 30.26 in 10.0 mi East 10.4 mph - N/A   Clear
10:35 PM 37.4 °F 30.8 °F 21.2 °F 52% 30.25 in 10.0 mi East 9.2 mph - N/A   Clear
10:55 PM 37.4 °F 30.8 °F 21.2 °F 52% 30.25 in 10.0 mi East 9.2 mph - N/A   Clear
11:15 PM 35.6 °F 28.6 °F 21.2 °F 56% 30.24 in 10.0 mi East 9.2 mph - N/A   Clear
11:55 PM 35.6 °F 30.7 °F 21.2 °F 56% 30.24 in 10.0 mi East 5.8 mph - N/A   Clear